Vertical_Velocity
-5 3 3 0 6 5 5 1 2 2 -5 -2 -0 2 3 1 -3 1 -0 -4 -2 -3 -3 2 11 7 1 -1 2 -2 1 1 -2 1 3 16 1 5 13 5 -1 4 4
2 3 4 8 5 -8 3 2 -2 1 -3 -2 1 -1 -1 2 2 3 -3 -6 -2 -4 3 7 1 3 3 2 0 0 -4 -1 -1 5 1 2 -5 3 -5 9 4 5 2
10 4 2 -1 3 3 0 3 -2 -0 -0 -5 -5 -0 -2 3 -5 -1 -3 -4 -5 -1 -1 4 -3 -2 3 3 13 6 2 4 -5 3 7 1 6 2 4 -0 4 16 1
4 4 8 7 4 6 0 -2 -0 -3 -2 2 4 -4 2 4 -2 -8 -4 -0 -1 -2 0 -1 -4 2 3 1 1 8 10 5 7 1 6 1 17 5 12 10 4 1 6
-5 -6 -5 -7 2 -1 -0 0 -4 -5 2 -2 -1 1 -2 2 -1 -1 4 -6 18 -2 1 -4 1 1 -2 4 1 6 6 4 -1 2 10 13 5 -2 3 3 -0 5 3
-8 -1 -0 -1 -0 -0 5 6 3 -1 1 2 -1 -3 1 -0 2 -0 4 -2 -4 1 -3 -0 0 0 2 4 3 7 3 3 1 -2 -0 3 6 1 1 4 8 9 -0
-1 2 -0 -3 1 -1 0 -1 1 5 3 2 -1 -3 -2 3 0 0 1 5 1 -2 -1 -2 0 1 3 2 1 4 2 -0 4 3 -0 7 4 3 9 5 3 -3 1
2 0 1 -2 1 0 1 3 -3 -2 -0 1 -4 -5 -3 1 -0 0 5 2 -2 1 -1 -2 2 2 5 4 5 0 -0 -0 6 6 -0 2 -4 -1 -4 0 -1 -2 0
-3 0 -8 -7 -2 3 4 -1 -0 -1 0 -9 -5 0 -2 0 0 1 -1 3 -0 -0 -0 -0 3 2 3 4 4 3 3 -3 0 4 -1 -2 -3 2 3 -1 0 1 -1
4 -2 -4 -3 -2 1 -8 -4 1 -12 -0 -8 -1 1 1 -0 1 0 -0 1 2 -2 -0 -2 1 2 2 3 7 -0 1 0 -3 -1 -2 -5 6 -1 -1 -0 1 -1 -6
0 6 3 -3 6 -6 -1 -5 -5 -5 4 -4 -2 -0 3 -0 -0 -2 -1 0 -1 -2 1 -4 0 1 2 1 4 5 0 2 2 -2 -4 -3 0 1 2 -1 -2 -0 7
5 3 -1 7 -7 -10 -3 -6 -4 -8 -2 -1 -2 1 1 2 1 0 -3 -2 -2 -1 -3 -2 -3 0 2 1 -0 5 4 1 4 3 0 -0 1 3 -0 1 -1 2 2
2 4 -1 5 2 -0 -8 -2 -4 -8 -2 -1 3 3 -1 -1 1 -3 -1 -1 -2 -3 -3 -2 -2 0 3 1 1 3 4 5 3 5 4 4 2 1 2 2 2 3 -1
2 3 -2 1 4 11 2 -9 -6 -4 -4 1 1 2 1 -0 -2 -3 -2 -1 -1 -3 -0 -2 -1 1 -1 1 3 2 2 5 6 2 7 5 4 0 -0 2 1 1 1
-1 -1 1 -0 5 -2 -0 -9 -7 -4 -5 1 1 1 2 -0 -5 -3 -1 -0 0 -0 -0 11 0 1 1 2 2 5 2 3 0 0 1 1 -2 -2 -1 1 2 2 2
-1 -3 -3 -1 -1 -1 -1 -6 -6 -4 -1 1 1 -0 2 -2 -2 -1 0 -0 1 0 1 2 5 1 1 -0 0 -1 1 3 -1 1 -1 0 -2 -2 1 -2 -0 1 1
-4 -8 -4 1 -1 1 -3 -4 -6 -2 -3 1 4 2 -0 -3 -1 -1 -0 -2 0 1 2 -1 1 2 -1 -2 1 5 5 -1 -1 1 -0 1 2 1 -0 3 0 -1 -0
-6 -5 1 -3 1 0 -0 -2 -7 -2 1 3 3 5 0 -2 -1 0 0 -2 2 2 -2 1 -0 7 -1 -2 2 3 4 1 -0 4 4 1 -2 -1 -1 -2 -0 1 -2
-5 -3 3 -2 1 -4 1 -2 -3 -4 1 3 4 1 3 0 -0 1 1 -1 -1 1 2 -0 -1 3 1 8 4 3 6 7 6 7 4 3 2 2 -2 -0 -1 -1 -1
-2 -1 -1 2 -0 -1 -1 -2 -3 -3 -1 3 4 4 1 -1 -2 -0 0 -1 -2 1 -1 2 1 1 3 5 2 3 3 5 5 2 1 2 2 1 0 0 0 0 1
2 0 -1 0 -1 -2 -2 -0 -4 -2 -1 -3 -1 1 1 1 -0 1 -0 1 0 -2 -0 -1 3 1 -1 -2 -1 -1 5 8 6 4 1 -1 -2 -1 -0 2 3 3 2
2 1 1 1 0 -1 -2 -2 -3 -1 0 -1 1 -0 -2 -1 0 0 -0 0 0 -1 0 -0 0 -1 1 2 1 -0 -1 -1 -2 -1 0 1 1 1 0 1 1 1 1
1 1 2 1 1 1 -2 -3 -1 -0 -1 1 2 0 -2 -3 -2 0 1 -1 -1 -2 -1 -0 -1 -3 -2 -0 1 -1 1 1 -1 1 -0 -0 2 3 3 3 3 3 3
1 1 1 2 2 1 -0 -1 -1 -2 -1 -1 -2 -1 1 1 -0 -0 -1 -3 -3 -3 -1 -1 -2 -2 -1 -1 0 1 -1 -0 1 -2 1 1 -0 1 2 1 1 1 2
3 2 2 1 0 0 2 2 1 -1 -1 -1 0 -1 -0 1 2 1 1 0 0 1 2 3 1 -0 -0 -1 -2 -0 0 5 -0 2 1 0 0 1 2 2 2 2 3
1 2 2 0 -0 -1 -0 0 1 -0 -1 -1 -1 1 2 -0 -0 0 -1 1 3 1 1 2 0 0 2 1 0 -0 -1 -0 -0 2 3 3 1 1 1 -0 0 -0 -2
Height
5707 5701 5696 5691 5685 5677 5671 5663 5655 5649 5642 5635 5627 5620 5614 5607 5601 5596 5591 5586 5581 5576 5569 5562 5557 5553 5552 5551 5551 5551 5553 5557 5561 5569 5576 5582 5585 5594 5598 5603 5605 5609 5614
5693 5688 5682 5675 5668 5661 5652 5646 5638 5631 5625 5618 5610 5603 5596 5590 5583 5577 5570 5563 5558 5551 5545 5542 5542 5541 5540 5538 5536 5536 5538 5540 5543 5551 5555 5561 5568 5576 5584 5588 5592 5597 5602
5678 5672 5665 5659 5651 5644 5637 5631 5625 5617 5610 5601 5593 5587 5580 5572 5564 5557 5548 5539 5534 5532 5531 5531 5531 5530 5529 5526 5524 5523 5522 5524 5529 5535 5540 5548 5555 5562 5569 5575 5581 5584 5589
5663 5657 5651 5645 5639 5633 5627 5619 5611 5602 5593 5584 5576 5569 5562 5553 5543 5535 5527 5523 5522 5522 5520 5522 5522 5520 5518 5516 5513 5510 5510 5513 5518 5523 5529 5535 5543 5548 5556 5562 5568 5573 5578
5649 5645 5639 5633 5626 5619 5609 5601 5592 5583 5574 5567 5560 5553 5544 5536 5524 5515 5513 5512 5511 5512 5512 5513 5513 5511 5509 5507 5503 5501 5501 5504 5509 5513 5519 5524 5531 5539 5546 5552 5559 5565 5570
5636 5629 5623 5617 5610 5603 5595 5585 5575 5568 5559 5550 5543 5534 5526 5516 5506 5501 5502 5503 5503 5503 5504 5505 5504 5503 5502 5499 5496 5494 5495 5496 5501 5506 5511 5519 5526 5531 5538 5545 5551 5556 5562
5617 5611 5606 5601 5593 5585 5576 5568 5559 5550 5542 5534 5524 5514 5505 5496 5489 5490 5493 5495 5496 5496 5497 5497 5497 5497 5496 5493 5491 5489 5489 5491 5495 5500 5507 5515 5521 5526 5532 5539 5544 5548 5552
5601 5595 5589 5582 5575 5568 5560 5552 5544 5534 5526 5517 5505 5495 5486 5479 5477 5481 5484 5487 5489 5490 5490 5491 5491 5491 5491 5489 5487 5486 5486 5488 5493 5499 5503 5508 5514 5521 5527 5533 5537 5540 5543
5585 5580 5573 5567 5561 5554 5545 5536 5525 5517 5509 5499 5488 5479 5473 5470 5471 5475 5477 5480 5482 5483 5484 5485 5486 5487 5487 5486 5485 5484 5485 5488 5492 5495 5499 5506 5514 5519 5524 5527 5531 5534 5537
5570 5564 5558 5551 5544 5535 5526 5519 5511 5502 5494 5483 5475 5470 5468 5467 5469 5471 5473 5475 5476 5477 5479 5480 5481 5482 5483 5484 5483 5484 5485 5488 5492 5495 5499 5503 5510 5515 5519 5522 5525 5528 5532
5553 5547 5538 5531 5525 5519 5511 5504 5496 5488 5480 5472 5467 5466 5466 5466 5466 5468 5468 5469 5470 5471 5472 5475 5476 5477 5478 5480 5482 5483 5486 5488 5491 5494 5498 5501 5506 5511 5515 5518 5521 5525 5528
5537 5530 5524 5516 5509 5503 5496 5488 5481 5474 5469 5465 5464 5463 5462 5462 5463 5464 5463 5463 5464 5463 5464 5464 5469 5472 5474 5476 5478 5482 5484 5487 5490 5493 5496 5499 5503 5507 5511 5514 5517 5522 5526
5521 5515 5509 5502 5493 5485 5479 5473 5466 5461 5459 5459 5459 5458 5458 5457 5458 5458 5457 5457 5456 5456 5456 5457 5460 5465 5468 5471 5474 5477 5480 5484 5487 5490 5493 5496 5500 5503 5506 5510 5515 5519 5522
5505 5498 5492 5485 5479 5471 5462 5457 5453 5451 5450 5451 5451 5451 5452 5452 5452 5452 5451 5450 5450 5450 5450 5451 5453 5458 5462 5465 5469 5473 5475 5478 5481 5486 5488 5491 5494 5498 5501 5505 5509 5513 5516
5488 5483 5477 5471 5463 5457 5450 5445 5442 5442 5442 5443 5443 5444 5445 5446 5447 5446 5445 5445 5445 5445 5446 5447 5449 5452 5455 5459 5464 5468 5471 5474 5477 5480 5482 5485 5489 5493 5496 5499 5502 5505 5509
5472 5468 5462 5455 5449 5444 5438 5434 5432 5433 5434 5434 5436 5437 5439 5440 5441 5440 5440 5440 5440 5441 5442 5442 5444 5446 5449 5453 5457 5461 5465 5469 5472 5474 5477 5481 5484 5487 5490 5493 5496 5498 5501
5458 5452 5446 5441 5437 5433 5429 5427 5425 5425 5426 5426 5428 5430 5432 5434 5435 5435 5434 5435 5436 5436 5437 5438 5439 5440 5443 5445 5450 5455 5459 5463 5466 5469 5472 5475 5478 5480 5483 5486 5488 5491 5494
5441 5436 5432 5430 5428 5425 5422 5421 5421 5420 5420 5421 5422 5423 5425 5427 5429 5429 5430 5430 5431 5432 5433 5434 5434 5435 5438 5441 5445 5449 5452 5456 5460 5462 5465 5467 5470 5472 5475 5477 5480 5483 5485
5425 5422 5422 5421 5419 5418 5416 5415 5415 5415 5415 5415 5416 5417 5419 5421 5422 5423 5424 5426 5426 5428 5428 5430 5431 5432 5434 5436 5440 5442 5445 5449 5452 5455 5458 5460 5462 5464 5466 5469 5472 5474 5476
5412 5412 5412 5412 5411 5410 5409 5409 5409 5409 5409 5410 5410 5410 5412 5413 5415 5416 5418 5419 5421 5422 5424 5425 5427 5428 5430 5431 5434 5436 5439 5442 5444 5447 5449 5452 5454 5456 5458 5461 5464 5466 5468
5401 5402 5402 5402 5402 5401 5401 5401 5401 5402 5402 5403 5403 5404 5405 5405 5407 5408 5410 5411 5413 5416 5417 5419 5421 5423 5425 5427 5428 5430 5432 5433 5435 5438 5440 5442 5444 5447 5449 5452 5454 5457 5458
5391 5391 5392 5392 5393 5393 5393 5393 5392 5392 5393 5394 5394 5395 5396 5397 5399 5400 5401 5403 5404 5406 5408 5410 5412 5413 5415 5417 5419 5421 5422 5424 5427 5428 5430 5433 5435 5437 5439 5442 5444 5446 5448
5380 5381 5381 5382 5383 5383 5384 5384 5384 5384 5384 5385 5385 5386 5386 5387 5389 5390 5392 5393 5395 5396 5398 5399 5401 5403 5405 5407 5408 5410 5411 5413 5415 5418 5420 5423 5425 5427 5429 5431 5433 5435 5436
5368 5369 5370 5371 5372 5373 5373 5374 5375 5376 5376 5376 5376 5376 5377 5377 5378 5379 5381 5382 5384 5386 5388 5389 5390 5392 5393 5395 5397 5398 5400 5402 5404 5407 5409 5411 5413 5415 5417 5419 5421 5422 5424
5355 5356 5357 5358 5359 5361 5362 5363 5364 5366 5367 5368 5368 5368 5369 5369 5369 5370 5371 5371 5372 5373 5375 5376 5378 5380 5382 5384 5385 5386 5388 5389 5392 5395 5396 5398 5400 5403 5405 5406 5408 5410 5411
5342 5343 5343 5344 5345 5347 5348 5350 5352 5354 5356 5358 5358 5359 5360 5361 5361 5362 5362 5363 5363 5364 5364 5365 5366 5368 5369 5371 5373 5374 5376 5377 5380 5382 5383 5386 5388 5389 5391 5393 5394 5396 5397